Location: B?ezina
(49.8085°N, 13.6013°E)
Time: 17:36:44
(UTC+00:00)

Cosmos 1300 - Pass Details

Date: 19 May 2025
Orbit: 394 x 397 km, 82.5° (Epoch: 17 June)

Event Time Altitude Azimuth Distance (km) Brightness Sun altitude
Rises 23:49:48 0° 337° (NNW) 2,319 6.9 -19.4°
Reaches altitude 10° 23:52:09 10° 320° (NW) 1,452 5.5 -19.3°
Enters shadow 23:54:10 20° 281° (W) 998 4.1 -19.3°
